Theta_e
347 346 348 350 348 345 347 348 349 348 348 348 347 348 348 348 343 340 341 343 344 346 351 352 350 351 349 351 351 351 350 349 348 346 347 348 348 345 345 347 345 344 346
344 347 348 348 348 345 348 346 345 347 348 348 347 347 348 347 343 340 340 341 342 346 351 351 351 351 350 351 349 349 349 348 346 346 347 347 345 348 348 346 346 346 346
346 348 348 347 349 348 345 346 344 344 343 343 343 344 345 344 343 343 343 343 343 346 346 350 352 352 351 350 349 348 350 347 348 349 348 346 346 346 345 347 346 347 346
348 349 348 347 349 348 344 344 345 345 345 344 344 344 344 344 347 347 347 344 346 346 348 347 351 352 351 351 350 350 349 350 350 349 346 346 346 345 346 347 345 345 345
349 349 348 347 347 347 346 346 347 347 345 345 345 346 351 351 351 352 352 350 346 348 348 348 343 351 350 348 351 347 348 350 349 345 346 346 347 345 343 348 344 343 339
350 350 349 347 348 347 347 349 350 351 348 346 344 344 348 352 352 352 351 347 346 347 350 349 347 344 348 349 349 348 349 349 347 345 346 346 344 348 343 347 347 346 341
350 350 353 348 348 347 346 348 349 353 352 352 352 350 348 346 347 351 350 346 346 346 348 348 345 349 348 350 345 343 343 348 339 344 346 346 344 345 345 344 344 345 339
350 351 349 349 349 348 347 347 350 353 353 352 353 352 352 352 348 348 346 345 346 343 348 348 346 346 346 350 344 342 343 344 345 345 346 343 344 344 346 346 345 346 341
349 350 351 349 350 353 351 353 352 352 353 352 351 350 350 350 348 350 348 345 345 343 344 344 344 346 344 350 341 342 344 344 346 346 346 342 337 340 347 347 344 340 342
350 350 351 353 352 353 354 352 350 352 352 351 350 351 351 351 351 351 346 345 344 342 341 344 344 344 343 344 343 341 342 345 346 346 346 345 339 342 347 346 347 345 342
354 353 352 351 353 353 353 354 353 352 353 352 352 352 351 350 349 349 343 344 343 344 344 343 343 344 345 344 342 339 341 344 346 345 346 346 342 341 347 344 344 344 343
355 354 349 349 349 350 352 352 352 352 351 351 350 351 348 350 348 347 344 341 345 346 343 343 344 344 342 345 347 343 341 340 343 345 345 346 344 343 345 344 342 343 342
351 352 350 348 348 345 348 347 347 347 349 350 351 348 347 347 347 348 349 348 346 348 348 346 345 344 343 342 343 343 343 340 339 340 345 346 346 344 342 345 344 340 343
351 350 349 347 345 344 345 343 342 343 345 345 345 344 344 342 342 349 349 349 347 347 347 343 343 343 343 343 341 341 342 342 339 337 342 346 345 345 344 343 342 341 343
350 350 349 345 344 344 345 343 343 343 343 344 344 345 344 345 345 345 343 347 348 348 347 346 345 344 344 345 344 342 343 343 342 340 337 344 345 344 345 343 344 342 345
349 348 348 344 344 345 344 344 345 344 344 344 344 344 346 345 346 343 342 344 347 347 345 346 348 347 346 346 346 346 343 344 344 344 342 340 345 346 344 342 343 344 347
351 349 347 343 344 347 347 347 345 346 347 345 346 346 342 345 347 345 344 345 344 344 344 344 345 346 346 345 345 346 344 344 344 344 345 345 345 346 345 345 345 344 344
352 351 349 349 346 343 348 347 345 345 344 344 343 344 345 346 346 346 345 340 346 346 344 342 342 342 342 341 342 342 342 343 341 341 342 343 344 345 346 347 346 345 344
354 353 352 351 349 345 346 342 343 340 342 344 344 344 345 346 345 344 341 343 346 345 346 346 344 343 343 343 342 340 338 335 337 338 340 339 341 344 345 345 346 346 345
353 354 353 351 350 348 344 345 344 341 340 342 344 345 346 344 345 346 345 344 347 347 346 345 345 345 344 343 341 340 338 336 334 335 334 336 343 343 345 345 345 345 344
352 353 353 352 350 347 347 343 340 341 341 338 343 344 345 343 344 341 340 344 344 345 345 344 344 344 344 343 340 337 338 337 337 338 339 338 342 344 345 346 345 345 346
353 353 354 351 349 346 341 339 339 339 340 342 344 346 346 346 345 346 346 346 346 343 342 342 343 342 342 342 338 337 343 338 337 338 342 342 342 342 342 342 342 343 344
353 353 353 350 347 342 339 340 341 341 341 344 345 345 344 344 345 344 343 342 342 343 343 343 343 342 344 341 339 340 340 343 338 338 338 339 340 342 343 343 343 344 344
351 352 350 347 344 339 340 340 341 344 345 344 345 344 344 343 342 341 341 342 342 342 342 343 343 343 342 341 339 340 337 337 339 338 338 338 342 343 344 343 344 345 343
336 346 350 346 342 338 341 343 344 346 344 344 344 344 343 341 339 339 340 342 342 343 343 344 343 343 343 342 341 340 341 340 340 340 342 338 338 342 343 344 344 343 345
338 338 349 345 340 340 340 342 345 345 343 343 344 343 340 339 339 340 342 342 342 343 344 342 342 343 343 343 343 341 340 340 340 340 339 338 338 340 341 341 342 343 345
Wind_Speed
23 22 17 16 16 18 19 20 20 21 21 21 20 20 21 18 17 16 14 13 12 10 11 10 9 11 10 11 12 13 13 13 13 14 15 15 16 16 16 15 14 14 15
31 24 20 17 16 17 18 19 19 19 20 20 20 20 21 20 17 16 14 12 10 10 9 10 10 10 11 11 11 11 12 13 14 14 15 15 14 15 16 14 15 15 14
28 24 22 20 17 17 18 18 19 19 19 19 19 18 18 17 16 14 12 11 9 9 8 11 10 10 11 11 13 13 13 14 15 14 15 17 15 13 14 14 14 13 14
26 24 23 22 19 17 17 18 18 19 18 17 17 17 17 16 14 12 11 9 8 8 8 8 9 9 11 11 12 13 14 14 13 13 14 17 13 13 13 14 14 12 11
25 23 23 22 20 18 17 17 17 17 18 16 16 16 14 14 13 11 10 9 9 7 7 9 11 9 11 12 12 13 14 13 13 13 12 13 14 12 12 12 14 14 10
23 23 23 21 19 17 17 16 16 15 16 15 15 14 14 13 12 10 9 7 8 8 7 6 8 10 11 11 12 13 13 13 14 13 12 13 12 12 12 12 13 13 12
24 24 21 21 19 18 17 16 15 15 15 13 13 13 13 13 11 9 8 7 6 6 6 6 7 8 11 12 12 12 14 12 12 11 11 11 10 12 11 13 11 11 11
25 24 22 20 19 18 16 16 15 14 13 12 11 12 12 10 10 9 8 6 6 5 6 5 5 7 10 11 11 12 12 12 11 8 7 10 10 10 12 12 12 12 11
24 23 22 21 19 17 16 16 15 14 13 12 11 10 11 10 9 8 8 7 6 4 4 4 5 7 10 12 12 12 10 9 8 7 7 11 10 11 11 12 12 11 12
22 22 22 20 20 19 17 16 16 14 14 13 12 10 9 8 8 7 8 8 7 5 4 4 4 6 8 10 11 11 10 8 9 7 8 12 11 11 11 11 11 10 10
20 21 21 21 20 20 19 17 16 16 14 13 12 11 10 10 9 7 7 6 6 5 4 5 5 6 7 9 11 12 12 11 8 6 7 12 14 10 12 12 12 11 11
20 23 23 23 22 21 20 19 18 16 16 15 14 13 12 10 9 8 6 6 6 5 5 6 7 7 7 9 10 10 13 12 11 9 7 11 15 13 13 13 13 13 12
28 26 25 24 22 23 22 21 19 18 17 16 15 13 12 10 10 9 8 9 8 7 6 6 7 7 8 9 11 12 13 14 14 13 10 10 14 16 14 14 14 15 15
28 29 26 25 24 22 21 21 21 20 19 16 15 13 11 12 11 9 7 7 10 9 9 8 9 9 9 10 10 12 14 14 15 15 15 12 12 16 17 15 14 15 15
27 29 28 27 25 23 21 20 19 18 13 13 13 11 11 13 13 11 8 9 10 11 11 11 11 10 10 10 11 12 13 15 15 16 17 16 14 14 17 15 13 17 17
28 29 28 26 23 19 13 14 16 16 16 15 14 12 15 16 14 11 11 10 11 11 12 13 14 13 13 13 13 13 15 15 15 15 16 17 13 15 16 19 16 17 19
30 27 27 25 19 9 19 14 16 14 14 15 17 15 15 16 14 12 11 12 12 13 13 15 17 16 15 15 17 17 18 18 17 15 15 16 17 14 14 18 19 19 20
27 26 24 17 16 20 18 14 11 11 13 11 14 16 15 15 15 15 15 14 13 15 13 13 12 16 17 18 20 19 20 21 18 17 17 17 17 18 18 17 20 18 20
27 25 22 14 22 19 20 13 10 7 6 4 9 10 8 9 11 11 11 11 8 12 14 14 15 15 16 18 19 16 16 18 21 21 24 17 19 19 18 17 18 18 19
21 20 18 12 11 13 11 12 12 5 1 1 5 1 1 1 1 4 6 9 9 10 11 12 13 14 15 15 13 16 16 17 18 19 21 21 18 19 19 18 17 19 19
16 17 17 12 8 9 8 7 8 7 3 3 6 4 1 1 3 2 3 5 8 10 10 11 13 13 16 15 10 11 15 17 17 17 17 18 17 18 17 16 16 17 17
16 15 17 11 6 7 6 6 6 10 5 3 5 4 4 2 1 2 4 6 9 9 11 12 12 12 10 11 7 3 2 3 13 18 16 17 18 20 20 18 17 15 15
16 19 17 10 13 13 9 8 10 10 6 1 7 6 4 3 2 3 4 6 9 9 8 10 12 14 11 8 16 4 1 3 1 3 6 13 13 15 15 15 16 14 13
7 15 12 13 18 15 15 11 2 4 5 5 7 8 6 4 4 5 6 6 7 7 8 8 10 13 14 12 9 18 5 1 2 1 4 7 6 2 8 13 13 11 12
30 14 11 16 18 16 13 9 5 6 8 8 6 4 3 5 7 8 7 6 5 6 7 8 8 11 13 13 13 6 18 7 4 2 2 1 5 10 6 3 4 6 7
26 24 15 17 19 17 14 8 7 7 8 8 6 3 4 6 9 9 9 8 6 6 6 5 6 6 9 12 11 11 9 6 8 4 2 2 2 7 8 7 5 3 1
Wind_Direction
162 154 152 147 139 140 139 140 140 141 140 138 136 142 153 150 145 143 140 141 139 135 126 125 119 125 129 121 118 118 120 122 125 125 128 124 121 122 129 125 125 121 119
161 160 156 155 146 142 142 141 140 142 142 142 140 141 149 155 154 153 148 143 143 142 138 135 131 130 133 129 127 124 132 129 132 134 132 129 128 128 129 126 125 124 127
161 163 163 161 154 147 146 145 143 143 142 143 144 147 151 156 156 155 150 151 152 149 151 141 135 136 136 134 134 138 143 140 141 136 136 130 132 132 130 128 127 125 127
161 163 164 163 159 152 150 150 149 148 146 144 143 146 151 153 155 152 150 153 152 163 156 141 136 147 147 145 143 146 144 144 138 141 145 143 138 142 142 138 134 134 132
160 163 165 167 162 155 154 154 154 153 152 149 147 147 150 150 146 146 145 147 147 143 152 151 160 164 156 157 153 155 149 153 148 149 154 159 152 147 149 145 141 139 139
161 165 167 169 163 160 158 158 155 156 156 154 150 149 151 150 146 147 144 148 147 147 135 146 165 165 170 165 158 159 157 153 158 152 149 155 157 152 152 148 146 146 148
164 167 168 172 171 168 163 163 160 161 159 156 153 154 157 155 153 153 150 153 153 152 147 144 161 179 171 166 164 163 167 164 161 159 165 171 165 166 162 160 161 157 157
165 168 169 177 178 174 169 168 165 164 163 163 163 163 161 161 161 161 158 161 160 158 144 150 155 168 170 169 167 166 177 183 186 196 205 190 182 179 173 171 164 166 163
171 172 175 178 179 177 175 171 172 171 168 168 173 171 168 176 170 167 166 167 168 160 138 135 148 168 177 173 176 171 169 172 188 207 206 197 194 184 187 189 184 179 175
175 178 180 183 176 179 182 178 176 175 178 177 179 177 180 179 178 179 171 165 168 181 170 156 146 169 182 182 183 184 184 186 208 211 231 215 206 200 195 200 196 188 187
180 185 186 186 185 183 182 183 181 180 185 183 179 188 187 187 182 184 183 176 172 184 185 180 169 164 184 197 193 191 196 205 215 231 231 212 210 213 204 208 207 206 202
189 195 194 191 191 189 188 185 188 183 189 190 185 191 198 200 198 199 195 194 190 191 205 201 191 179 185 201 198 200 210 214 221 232 225 205 211 221 217 213 216 217 214
196 199 199 199 199 195 194 192 193 189 193 192 195 202 209 210 208 217 219 221 219 211 216 223 216 204 198 206 213 211 220 220 226 235 229 218 221 223 222 222 221 218 215
201 205 204 204 205 206 203 203 198 195 195 197 199 203 218 230 221 235 253 244 233 236 225 231 236 225 216 220 225 223 223 227 229 230 230 234 232 231 220 224 227 224 223
203 208 209 205 210 211 211 214 213 208 207 209 203 203 205 238 239 247 260 247 248 237 241 236 231 234 237 240 242 238 236 238 238 239 235 236 247 230 224 223 222 231 225
207 211 210 209 214 220 231 245 242 225 207 218 226 226 230 237 230 239 252 259 250 243 248 246 246 247 249 247 249 250 247 242 242 247 246 241 243 241 235 230 239 231 230
210 212 210 207 205 230 226 219 238 243 227 219 236 235 240 249 248 245 248 258 256 254 249 246 243 246 247 250 254 251 256 251 240 250 247 244 240 244 246 242 241 240 238
213 215 213 195 212 207 224 219 240 270 246 240 264 243 238 250 252 256 256 260 263 265 266 249 249 250 250 257 260 258 255 254 248 256 251 248 245 248 245 242 241 248 247
219 218 212 205 202 215 218 223 227 220 250 250 268 255 240 247 244 253 255 258 268 274 269 269 263 258 259 263 258 259 260 257 254 254 252 259 250 246 245 246 243 253 254
222 215 211 213 209 209 216 210 197 181 203 266 262 224 250 324 308 237 268 285 278 276 275 270 269 263 264 271 266 264 266 261 257 258 255 247 253 245 246 245 248 252 256
207 201 193 197 208 192 207 157 148 121 78 20 310 321 32 343 341 285 281 268 269 268 269 274 268 260 261 260 263 269 266 260 253 255 250 243 248 249 248 248 254 258 265
192 187 180 190 176 140 124 132 133 139 177 257 302 67 62 73 57 300 288 276 276 268 266 264 259 263 260 244 209 214 286 277 241 244 245 246 252 249 249 250 252 260 274
185 181 179 158 152 139 134 129 131 141 164 216 72 81 64 49 21 345 315 299 294 285 275 266 261 250 246 240 219 202 160 233 286 170 241 241 253 254 244 243 246 255 270
245 175 152 157 154 145 138 144 112 108 118 95 104 102 89 53 5 340 333 321 308 296 285 276 260 254 239 231 229 224 221 229 164 68 112 85 67 260 245 248 238 245 267
300 302 156 162 162 157 146 150 129 101 109 123 119 110 51 12 359 351 344 329 319 307 294 288 275 252 239 232 219 191 222 221 167 135 169 198 64 51 62 81 179 238 263
272 279 186 175 169 165 148 146 154 144 135 137 131 111 58 29 26 20 11 1 340 320 320 319 293 250 227 231 233 221 196 189 210 191 183 263 260 57 57 64 64 77 86